FW8938 Weather Reports


Display with metric or nautical units.
time (UTC)temp
F
wind
direction
speed
MPH
gust
MPH
rain 1hr
in
rain 24hr
in
rain mn
in
humidity
%
barometer
mb
20260505054616 65 42 7.0 17.0 0.00 0.00 0.00 71 1006.5
20260505053056 66 314 12.0 23.0 0.00 0.00 0.00 70 1006.6
20260505051627 65 35 13.0 21.0 0.00 0.00 0.00 71 1006.3
20260505041553 66 9 10.0 18.0 0.00 0.00 0.00 70 1006.8
20260505040100 66 22 8.0 16.0 0.00 0.00 0.00 70 1007.0
20260505034550 67 28 11.0 19.0 0.00 0.00 0.00 69 1007.2
20260505033053 67 43 8.0 17.0 0.00 0.00 0.00 68 1007.5
20260505031552 67 17 10.0 19.0 0.00 0.00 0.00 67 1007.2
20260505030052 68 27 8.0 14.0 0.00 0.00 0.00 65 1007.4
20260505024609 68 47 7.0 16.0 0.00 0.00 0.00 64 1007.3
20260505023055 69 342 8.0 13.0 0.00 0.00 0.00 63 1007.0
20260505021613 69 46 7.0 15.0 0.00 0.00 0.00 62 1006.8
20260505020100 70 36 10.0 17.0 0.00 0.00 0.00 60 1006.6
20260505014555 70 27 5.0 14.0 0.00 0.00 0.00 60 1006.4
20260505013057 71 63 9.0 15.0 0.00 0.00 0.00 58 1006.2
20260505011556 72 32 9.0 18.0 0.00 0.00 0.00 57 1006.0
20260505010053 72 42 9.0 15.0 0.00 0.00 0.00 56 1005.9
20260505004559 73 42 5.0 10.0 0.00 0.00 0.00 55 1005.8
20260505003054 74 49 6.0 15.0 0.00 0.00 0.00 53 1005.7
20260505001555 75 36 9.0 16.0 0.00 0.00 0.00 51 1005.7
20260505000057 75 26 10.0 20.0 0.00 0.00 0.00 49 1005.8
20260504234552 76 349 11.0 22.0 0.00 0.00 0.00 48 1005.8
20260504233100 77 329 14.0 22.0 0.00 0.00 0.00 49 1005.9
20260504231554 77 24 14.0 20.0 0.00 0.00 0.00 49 1005.9
20260504230101 77 57 13.0 23.0 0.00 0.00 0.00 49 1005.9
20260504224553 78 36 9.0 19.0 0.00 0.00 0.00 49 1005.9
20260504223055 78 24 17.0 25.0 0.00 0.00 0.00 49 1006.0
20260504221606 78 55 12.0 21.0 0.00 0.00 0.00 47 1006.0
20260504220122 78 40 12.0 26.0 0.00 0.00 0.00 49 1005.9
20260504214555 78 34 14.0 21.0 0.00 0.00 0.00 49 1006.1
20260504213122 79 40 10.0 26.0 0.00 0.00 0.00 49 1006.3
20260504211555 78 57 15.0 25.0 0.00 0.00 0.00 48 1006.4
20260504210059 78 54 12.0 25.0 0.00 0.00 0.00 49 1006.5
20260504204606 78 51 12.0 23.0 0.00 0.00 0.00 48 1006.7
20260504203052 78 38 16.0 24.0 0.00 0.00 0.00 48 1006.8
20260504201554 78 33 17.0 26.0 0.00 0.00 0.00 47 1007.0
20260504200109 77 31 18.0 26.0 0.00 0.00 0.00 49 1007.1
20260504194559 77 34 17.0 30.0 0.00 0.00 0.00 48 1007.3
20260504193054 77 41 16.0 33.0 0.00 0.00 0.00 47 1007.4
20260504191559 77 345 18.0 28.0 0.00 0.00 0.00 47 1007.5
20260504190057 77 48 15.0 28.0 0.00 0.00 0.00 50 1007.6
20260504184558 77 33 12.0 27.0 0.00 0.00 0.00 48 1007.7
20260504183059 76 74 17.0 26.0 0.00 0.00 0.00 49 1007.8
20260504181556 76 51 15.0 28.0 0.00 0.00 0.00 49 1007.7
20260504180054 75 46 15.0 30.0 0.00 0.00 0.00 51 1007.8
20260504174557 76 38 13.0 27.0 0.00 0.00 0.00 51 1007.9
20260504173100 75 25 14.0 35.0 0.00 0.00 0.00 51 1008.0
20260504171556 75 51 17.0 26.0 0.00 0.00 0.00 52 1007.9
20260504081554 62 51 8.0 15.0 0.00 0.00 0.00 64 1010.5
20260504060103 64 348 9.0 16.0 0.00 0.00 0.00 59 1011.6